User: anonymous   Login
Location: Unspecified
(0.0000°N, 0.0000°E)
Time: 05:28:31
(UTC+00:00)
Language:

NOAA 10 - Orbit

View from above orbital plane
View from above orbital plane
View from above satellite
View from above satellite

Ground track
Ground track

The orbit data is extracted from the following two-line orbital elements,

1 16969U 86073A   18018.50013417 -.00000003 +00000-0 +15750-4 0  9990
2 16969 098.4624 025.4944 0012288 008.4829 104.9448 14.28032034631160
Epoch (UTC): 18 January 2018 12:00:11
Eccentricity: 0.0012288
inclination: 98.4624°
perigee height: 789 km
apogee height: 807 km
right ascension of ascending node: 25.4944°
argument of perigee: 8.4829°
revolutions per day: 14.28032034
mean anomaly at epoch: 104.9448°
orbit number at epoch: 63116

The dashed part of the orbit path shows where the satellite is in the earth's shadow,  

DLR